�������l�o���
Date,Time,MP-1(��Sv/h),MP-2(��Sv/h),MP-3(��Sv/h),MP-4(��Sv/h),MP-5(��Sv/h),MP-6(��Sv/h),MP-7(��Sv/h),MP-8(��Sv/h),����,����(m/s),���J
2023/07/13,00:00,0.526,0.800,0.490,0.957,0.703,0.324,0.564,0.531,��,0.8,��
2023/07/13,00:10,0.525,0.803,0.491,0.958,0.704,0.326,0.566,0.532,�쐼,1.4,��
2023/07/13,00:20,0.525,0.801,0.492,0.960,0.703,0.325,0.564,0.530,�쐼,1.5,��
2023/07/13,00:30,0.527,0.801,0.490,0.958,0.704,0.324,0.564,0.531,��,1.7,��
2023/07/13,00:40,0.526,0.800,0.489,0.959,0.702,0.324,0.564,0.532,��쓌,2.6,��
2023/07/13,00:50,0.525,0.802,0.490,0.959,0.702,0.324,0.562,0.532,��,1.5,��
2023/07/13,01:00,0.526,0.802,0.491,0.959,0.704,0.324,0.565,0.531,�쐼,3.7,�L
2023/07/13,01:10,0.526,0.801,0.490,0.957,0.702,0.325,0.564,0.531,�쐼,4.2,��
2023/07/13,01:20,0.526,0.800,0.491,0.958,0.703,0.325,0.564,0.531,���쐼,3.9,�L
2023/07/13,01:30,0.526,0.801,0.491,0.960,0.702,0.326,0.564,0.530,���k��,6.7,�L
2023/07/13,01:40,0.528,0.800,0.491,0.960,0.704,0.324,0.566,0.531,���k��,4.3,��
2023/07/13,01:50,0.528,0.802,0.491,0.961,0.703,0.324,0.564,0.532,��쐼,3.3,��
2023/07/13,02:00,0.526,0.802,0.491,0.959,0.704,0.324,0.563,0.532,��,5.0,��
2023/07/13,02:10,0.526,0.801,0.492,0.959,0.704,0.326,0.563,0.531,��,3.6,�L
2023/07/13,02:20,0.525,0.803,0.490,0.958,0.702,0.325,0.565,0.532,��,4.6,��
2023/07/13,02:30,0.527,0.804,0.491,0.960,0.704,0.325,0.564,0.532,��,7.1,��
2023/07/13,02:40,0.526,0.804,0.492,0.960,0.705,0.324,0.565,0.531,���쐼,5.5,��
2023/07/13,02:50,0.527,0.802,0.493,0.959,0.704,0.325,0.565,0.531,���쐼,4.4,��
2023/07/13,03:00,0.527,0.800,0.490,0.960,0.702,0.325,0.565,0.531,��,6.7,��
2023/07/13,03:10,0.528,0.802,0.492,0.959,0.703,0.325,0.565,0.531,��,6.8,��
2023/07/13,03:20,0.526,0.803,0.491,0.962,0.702,0.324,0.565,0.530,��,4.6,��
2023/07/13,03:30,0.525,0.801,0.489,0.960,0.702,0.324,0.565,0.532,���k��,8.8,��
2023/07/13,03:40,0.526,0.800,0.492,0.961,0.703,0.323,0.565,0.533,��,7.7,��
2023/07/13,03:50,0.526,0.802,0.491,0.960,0.704,0.324,0.566,0.531,���k��,4.9,��
2023/07/13,04:00,0.526,0.803,0.489,0.961,0.704,0.324,0.565,0.532,���k��,3.8,��
2023/07/13,04:10,0.526,0.800,0.492,0.959,0.702,0.324,0.564,0.532,���k��,5.7,��
2023/07/13,04:20,0.526,0.798,0.489,0.960,0.703,0.325,0.565,0.532,���k��,7.7,��
2023/07/13,04:30,0.526,0.800,0.491,0.961,0.705,0.323,0.565,0.532,��,5.6,��
2023/07/13,04:40,0.525,0.800,0.491,0.962,0.703,0.323,0.564,0.532,��,5.8,��
2023/07/13,04:50,0.525,0.803,0.490,0.960,0.703,0.324,0.565,0.532,��,4.6,��
2023/07/13,05:00,0.525,0.801,0.490,0.960,0.703,0.325,0.564,0.531,���k��,3.8,��
2023/07/13,05:10,0.526,0.802,0.489,0.958,0.703,0.324,0.564,0.533,��,3.6,��
2023/07/13,05:20,0.524,0.801,0.491,0.960,0.703,0.325,0.565,0.533,��,4.1,��
2023/07/13,05:30,0.526,0.800,0.490,0.962,0.704,0.325,0.564,0.533,��,5.3,��
2023/07/13,05:40,0.526,0.803,0.490,0.960,0.704,0.325,0.565,0.532,��,5.4,��
2023/07/13,05:50,0.527,0.802,0.491,0.960,0.704,0.323,0.566,0.533,���쐼,3.8,��
2023/07/13,06:00,0.525,0.801,0.492,0.961,0.703,0.324,0.565,0.532,��,3.5,��
2023/07/13,06:10,0.527,0.802,0.492,0.963,0.702,0.325,0.566,0.533,��,4.7,��
2023/07/13,06:20,0.526,0.802,0.490,0.962,0.703,0.324,0.564,0.533,���쐼,4.3,��
2023/07/13,06:30,0.526,0.801,0.491,0.964,0.703,0.324,0.565,0.531,���쐼,3.7,��
2023/07/13,06:40,0.526,0.804,0.492,0.964,0.705,0.324,0.565,0.530,��,2.3,��
2023/07/13,06:50,0.526,0.801,0.491,0.962,0.704,0.324,0.565,0.532,���쐼,1.5,��
2023/07/13,07:00,0.527,0.801,0.491,0.963,0.702,0.325,0.564,0.532,��,3.4,��
2023/07/13,07:10,0.527,0.800,0.490,0.961,0.704,0.325,0.567,0.532,��,3.9,��
2023/07/13,07:20,0.526,0.801,0.489,0.959,0.704,0.326,0.565,0.530,���k��,4.2,��
2023/07/13,07:30,0.525,0.802,0.493,0.961,0.703,0.324,0.566,0.531,���k��,3.5,��
2023/07/13,07:40,0.525,0.804,0.490,0.964,0.705,0.325,0.566,0.531,��,2.6,��
2023/07/13,07:50,0.528,0.802,0.489,0.962,0.704,0.325,0.565,0.532,��,4.1,��
2023/07/13,08:00,0.527,0.803,0.492,0.962,0.706,0.325,0.566,0.532,��,4.2,��
2023/07/13,08:10,0.528,0.803,0.491,0.960,0.705,0.324,0.566,0.532,��,6.7,��
2023/07/13,08:20,0.528,0.801,0.491,0.962,0.705,0.325,0.565,0.533,��,6.3,��
2023/07/13,08:30,0.528,0.801,0.491,0.964,0.703,0.325,0.566,0.531,���k��,7.0,��
2023/07/13,08:40,0.527,0.801,0.490,0.963,0.703,0.324,0.567,0.532,���k��,8.1,��
2023/07/13,08:50,0.527,0.800,0.491,0.963,0.705,0.324,0.567,0.530,��,7.9,��
2023/07/13,09:00,0.527,0.801,0.490,0.962,0.702,0.324,0.567,0.530,���k��,6.9,��
2023/07/13,09:10,0.528,0.802,0.492,0.963,0.705,0.325,0.568,0.530,��,7.1,��
2023/07/13,09:20,0.529,0.801,0.491,0.965,0.707,0.323,0.567,0.529,��,6.6,��
2023/07/13,09:30,0.529,0.804,0.490,0.965,0.703,0.324,0.566,0.530,���k��,7.5,��
2023/07/13,09:40,0.530,0.804,0.491,-,0.705,0.325,0.567,0.531,��,6.8,��
2023/07/13,09:50,0.530,0.802,0.493,-,0.706,0.325,0.567,0.532,���k��,6.4,��
2023/07/13,10:00,0.531,0.803,0.491,-,0.707,0.325,0.565,0.533,���k��,6.5,��
2023/07/13,10:10,0.529,0.805,0.491,-,0.705,0.325,0.567,0.531,��,8.4,��
2023/07/13,10:20,0.530,0.805,0.493,-,0.705,0.325,0.567,0.532,��,6.4,��
2023/07/13,10:30,0.531,0.806,0.492,-,0.706,0.325,0.567,0.532,��,7.1,��
2023/07/13,10:40,0.531,0.803,0.492,-,0.706,0.324,0.566,0.532,��,6.4,��
2023/07/13,10:50,0.529,0.808,0.493,-,0.708,0.324,0.565,0.533,���쐼,7.6,��
2023/07/13,11:00,0.531,0.806,0.492,-,0.707,0.324,0.566,0.534,���쐼,8.0,��
2023/07/13,11:10,0.531,0.810,0.493,-,0.707,0.326,0.565,0.534,���쐼,9.7,��
2023/07/13,11:20,0.532,0.810,0.491,-,0.708,0.326,0.566,0.531,���쐼,6.7,��
2023/07/13,11:30,0.531,0.809,0.492,-,0.708,0.326,0.566,0.533,���쐼,6.8,��
2023/07/13,11:40,0.531,0.808,0.494,-,0.709,0.325,0.567,0.535,��,6.3,��
2023/07/13,11:50,0.533,0.810,0.495,-,0.709,0.325,0.567,0.534,��,7.8,��
2023/07/13,12:00,0.535,0.812,0.495,0.966,0.708,0.325,0.566,0.535,���쐼,5.7,��
2023/07/13,12:10,0.533,0.810,0.495,0.968,0.711,0.325,0.565,0.535,��,5.1,��
2023/07/13,12:20,0.535,0.809,0.497,0.968,0.715,0.325,0.565,0.534,���k��,5.7,��
2023/07/13,12:30,0.534,0.810,0.496,0.967,0.712,0.327,0.569,0.535,��,5.1,��
2023/07/13,12:40,0.534,0.811,0.495,0.969,0.715,0.326,0.567,0.534,��,3.3,��
2023/07/13,12:50,0.534,0.810,0.498,0.968,0.714,0.327,0.567,0.536,���쐼,4.1,��
2023/07/13,13:00,0.535,0.810,0.497,0.970,0.713,0.327,0.568,0.535,��,4.8,��
2023/07/13,13:10,0.534,0.810,0.495,0.969,0.713,0.327,0.568,0.534,��,5.6,��
2023/07/13,13:20,0.535,0.810,0.497,0.969,0.713,0.328,0.569,0.536,��,6.0,��
2023/07/13,13:30,0.535,0.810,0.498,0.968,0.716,0.327,0.569,0.533,���k��,5.4,��
2023/07/13,13:40,0.536,0.811,0.496,0.975,0.714,0.326,0.570,0.536,��,5.6,��
2023/07/13,13:50,0.534,0.811,0.498,0.970,0.715,0.328,0.571,0.536,���k��,5.3,��
2023/07/13,14:00,0.537,0.813,0.498,0.970,0.717,0.327,0.570,0.535,���k��,8.3,��
2023/07/13,14:10,0.534,0.812,0.498,0.971,0.715,0.329,0.570,0.535,���k��,5.0,��
2023/07/13,14:20,0.535,0.812,0.498,0.970,0.717,0.328,0.571,0.536,�k,3.2,��
2023/07/13,14:30,0.536,0.812,0.498,0.970,0.716,0.327,0.570,0.535,�k,4.4,��
2023/07/13,14:40,0.535,0.812,0.498,0.971,0.714,0.326,0.570,0.535,�k,5.1,��
2023/07/13,14:50,0.532,0.810,0.497,0.972,0.715,0.326,0.569,0.533,�k�k��,3.7,��
2023/07/13,15:00,0.535,0.810,0.498,0.972,0.715,0.326,0.569,0.534,�k�k��,3.7,��
2023/07/13,15:10,0.532,0.809,0.498,0.974,0.714,0.326,0.569,0.534,�k�k��,5.3,��
2023/07/13,15:20,0.535,0.811,0.497,0.973,0.714,0.326,0.567,0.535,�k�k��,4.5,��
2023/07/13,15:30,0.534,0.811,0.496,0.975,0.715,0.326,0.569,0.532,�k�k��,4.0,��
2023/07/13,15:40,0.534,0.810,0.497,0.974,0.714,0.327,0.568,0.533,�k�k��,4.4,��
2023/07/13,15:50,0.533,0.811,0.496,0.974,0.714,0.327,0.568,0.533,�k�k��,4.7,��
2023/07/13,16:00,0.533,0.809,0.497,0.973,0.715,0.326,0.568,0.533,�k��,3.3,��
2023/07/13,16:10,0.533,0.812,0.497,0.973,0.713,0.325,0.568,0.533,�k��,2.9,��
2023/07/13,16:20,0.531,0.812,0.496,0.973,0.713,0.326,0.568,0.534,�k��,2.3,��
2023/07/13,16:30,0.532,0.811,0.497,0.975,0.713,0.327,0.568,0.532,�k��,3.2,��
2023/07/13,16:40,0.532,0.811,0.497,0.973,0.715,0.325,0.569,0.533,���k��,3.1,��
2023/07/13,16:50,0.533,0.810,0.497,0.973,0.715,0.324,0.568,0.533,�k��,2.8,��
2023/07/13,17:00,0.533,0.811,0.496,0.974,0.716,0.326,0.569,0.532,�k��,2.6,��
2023/07/13,17:10,0.531,0.814,0.496,0.972,0.715,0.326,0.568,0.532,�k��,2.0,��
2023/07/13,17:20,0.532,0.812,0.497,0.973,0.713,0.327,0.568,0.533,�k��,2.3,��
2023/07/13,17:30,0.532,0.811,0.497,0.973,0.714,0.326,0.568,0.533,�k��,2.2,��
2023/07/13,17:40,0.531,0.812,0.497,0.973,0.715,0.326,0.566,0.534,�k�k��,2.2,��
2023/07/13,17:50,0.533,0.812,0.495,0.976,0.716,0.326,0.567,0.534,�k��,1.7,��
2023/07/13,18:00,0.534,0.811,0.496,0.974,0.714,0.326,0.567,0.533,�k��,2.3,��
2023/07/13,18:10,0.532,0.811,0.496,0.975,0.714,0.326,0.568,0.534,�k��,2.5,��
2023/07/13,18:20,0.532,0.812,0.495,0.974,0.713,0.325,0.568,0.533,�k��,1.9,��
2023/07/13,18:30,0.530,0.812,0.497,0.975,0.715,0.326,0.568,0.534,���k��,1.7,��
2023/07/13,18:40,0.533,0.812,0.496,0.974,0.715,0.325,0.569,0.534,�k��,2.6,��
2023/07/13,18:50,0.531,0.811,0.494,0.975,0.715,0.325,0.568,0.535,�k��,3.7,��
2023/07/13,19:00,0.533,0.810,0.497,0.975,0.712,0.325,0.568,0.535,���k��,3.4,��
2023/07/13,19:10,0.532,0.811,0.494,0.976,0.715,0.326,0.567,0.533,���k��,2.3,��
2023/07/13,19:20,0.532,0.810,0.494,0.974,0.712,0.325,0.568,0.533,���k��,3.1,��
2023/07/13,19:30,0.533,0.813,0.496,0.974,0.715,0.325,0.568,0.533,�k��,3.2,��
2023/07/13,19:40,0.534,0.812,0.495,0.973,0.714,0.326,0.566,0.534,���k��,3.7,��
2023/07/13,19:50,0.533,0.813,0.497,0.977,0.715,0.325,0.566,0.534,�k��,2.3,��
2023/07/13,20:00,0.533,0.812,0.494,0.976,0.713,0.325,0.567,0.532,�k��,2.8,��
2023/07/13,20:10,0.532,0.812,0.496,0.973,0.716,0.326,0.565,0.534,�k��,2.2,��
2023/07/13,20:20,0.532,0.812,0.495,0.973,0.714,0.327,0.567,0.533,�k,2.3,��
2023/07/13,20:30,0.533,0.813,0.495,0.976,0.715,0.326,0.568,0.534,�k�k��,2.3,��
2023/07/13,20:40,0.533,0.814,0.496,0.976,0.714,0.327,0.566,0.534,�k,3.0,��
2023/07/13,20:50,0.532,0.811,0.496,0.975,0.717,0.327,0.567,0.534,�k�k��,1.9,��
2023/07/13,21:00,0.532,0.813,0.496,0.976,0.715,0.328,0.566,0.534,���k��,1.2,��
2023/07/13,21:10,0.532,0.812,0.496,0.974,0.714,0.325,0.568,0.534,��,1.5,��
2023/07/13,21:20,0.533,0.812,0.498,0.975,0.715,0.326,0.567,0.533,��쐼,2.0,��
2023/07/13,21:30,0.533,0.812,0.496,0.977,0.717,0.326,0.567,0.533,��쐼,1.7,��
2023/07/13,21:40,0.532,0.812,0.498,0.975,0.716,0.327,0.568,0.534,��쐼,1.5,��
2023/07/13,21:50,0.531,0.812,0.498,0.977,0.717,0.327,0.568,0.533,��,0.6,��
2023/07/13,22:00,0.533,0.812,0.498,0.975,0.716,0.326,0.567,0.531,��쐼,1.1,��
2023/07/13,22:10,0.533,0.811,0.497,0.974,0.715,0.326,0.567,0.534,��,0.9,��
2023/07/13,22:20,0.534,0.813,0.495,0.978,0.715,0.327,0.569,0.533,��,1.9,�L
2023/07/13,22:30,0.533,0.813,0.497,0.975,0.716,0.326,0.567,0.534,��쐼,1.5,�L
2023/07/13,22:40,0.533,0.811,0.497,0.977,0.715,0.328,0.568,0.535,��쐼,2.2,�L
2023/07/13,22:50,0.534,0.813,0.496,0.976,0.715,0.326,0.567,0.534,��쐼,2.8,��
2023/07/13,23:00,0.532,0.816,0.496,0.976,0.717,0.326,0.567,0.534,�쐼,2.2,��
2023/07/13,23:10,0.534,0.812,0.498,0.976,0.717,0.327,0.568,0.533,��쐼,2.2,��
2023/07/13,23:20,0.532,0.814,0.497,0.976,0.716,0.325,0.569,0.534,��,3.3,��
2023/07/13,23:30,0.535,0.814,0.495,0.976,0.715,0.326,0.567,0.535,��쐼,3.8,��
2023/07/13,23:40,0.532,0.814,0.499,0.977,0.717,0.328,0.568,0.533,��쐼,4.1,�L
2023/07/13,23:50,0.534,0.811,0.496,0.979,0.714,0.326,0.567,0.533,��,4.9,�L
